Location: Unspecified
(0.0000°N, 0.0000°E)
Time: 23:19:07
(UTC+00:00)

FLYING LAPTOP - Visible Passes

Search period start: 14 December 2025 00:00
Search period end: 24 December 2025 00:00
Orbit: 557 x 577 km, 97.4° (Epoch: 14 December)

Date Brightness Start Highest point End Pass type
(mag) Time Alt. Az. Time Alt. Az. Time Alt. Az.
14 Dec ? 03:15:38 10° E 03:16:26 11° E 03:16:26 11° E visible
14 Dec ? 04:48:38 10° SSW 04:51:50 23° WSW 04:52:30 22° W visible
15 Dec ? 03:16:25 10° ESE 03:17:21 12° E 03:17:21 12° E visible
15 Dec ? 04:49:39 10° SSW 04:52:47 22° WSW 04:53:24 21° W visible
16 Dec ? 03:17:13 10° ESE 03:18:14 12° E 03:18:14 12° E visible
16 Dec ? 04:50:39 10° SSW 04:53:44 21° WSW 04:54:18 21° W visible
17 Dec ? 03:18:01 10° ESE 03:19:07 12° E 03:19:07 12° E visible
17 Dec ? 04:51:39 10° SSW 04:54:40 21° WSW 04:55:10 20° W visible
18 Dec ? 03:18:49 10° ESE 03:20:00 13° E 03:20:00 13° E visible
18 Dec ? 04:52:39 10° SSW 04:55:36 20° WSW 04:56:03 19° W visible
19 Dec ? 03:19:37 10° ESE 03:20:51 13° E 03:20:51 13° E visible
19 Dec ? 04:53:38 10° SSW 04:56:31 19° WSW 04:56:55 19° W visible
20 Dec ? 03:20:25 10° ESE 03:21:43 13° E 03:21:43 13° E visible
20 Dec ? 04:54:37 10° SSW 04:57:25 19° WSW 04:57:47 18° W visible
21 Dec ? 03:21:13 10° ESE 03:22:34 14° E 03:22:34 14° E visible
21 Dec ? 04:55:35 10° SW 04:58:20 18° WSW 04:58:37 18° W visible
22 Dec ? 03:22:01 10° ESE 03:23:24 14° E 03:23:24 14° E visible
22 Dec ? 04:56:33 10° SW 04:59:13 17° WSW 04:59:28 17° W visible
23 Dec ? 03:22:49 10° ESE 03:24:14 15° E 03:24:14 15° E visible
23 Dec ? 04:57:32 10° SW 05:00:06 17° WSW 05:00:17 17° W visible
